Rochester, MN

1:56 AM CST on November 20, 2017 (GMT -0600)
Rochester International

Weather History for KRST - June, 2013

Change the Weather History Date:

Friday, June 21, 2013

  Actual Average Record
Temperature  
Mean Temperature 73 °F 69 °F  
Max Temperature 83 °F 80 °F 99 °F (1988)
Min Temperature 63 °F 59 °F 37 °F (1992)
Degree Days  
Heating Degree Days 0 1  
Month to date heating degree days 60 47  
Since 1 June heating degree days 60  
Since 1 July heating degree days 7825 7717  
Cooling Degree Days 8 5  
Month to date cooling degree days 62 75  
Year to date cooling degree days 92 109  
Since 1 June cooling degree days 62  
Growing Degree Days 22 (Base 50)    
Moisture  
Dew Point 64 °F    
Average Humidity 76    
Maximum Humidity 87    
Minimum Humidity 64    
Precipitation  
Precipitation 1.26 in 0.16 in 2.02 in (2002)
Month to date precipitation 2.43 3.28  
Year to date precipitation 26.33 13.72  
Snow  
Snow 0.00 in 0.00 in 0.00 in (2012)
Month to date snowfall 0.0 0.0  
Since 1 June snowfall 0.0  
Since 1 July snowfall 74.0 51.9  
Snow Depth 0.00 in    
Sea Level Pressure  
Sea Level Pressure 29.95 in    
Wind  
Wind Speed 13 mph (SE)    
Max Wind Speed 33 mph    
Max Gust Speed 39 mph    
Visibility 8 miles    
Events Fog , Rain , Hail , Thunderstorm    
T = Trace of Precipitation, MM = Missing Value Source: NWS Daily Summary

Daily Weather History Graph

Daily Weather History Graph

Search for Another Location

Airport or City:

Trip Planner

Search our weather history database for the weather conditions in past years. The results will help you decide how hot, cold, wet, or windy it might be!

Date:

Astronomy

Jun. 21, 2013 Rise Set
Actual Time 5:27 AM CDT 8:56 PM CDT
Civil Twilight 4:51 AM CDT 9:32 PM CDT
Nautical Twilight 4:03 AM CDT 10:20 PM CDT
Astronomical Twilight 3:02 AM CDT 11:20 PM CDT
Moon 7:04 PM CDT (6/21) 3:46 AM CDT (6/21)
Length of Visible Light 16h 41m
Length of Day
15h 28m
Waxing Gibbous, 95% of the Moon is Illuminated
Jun 21
Waxing Gibbous
Jun 23
Full
Jun 29
Last Quarter
Jul 8
New
Jul 15
First Quarter

Hourly Weather History & Observations

Time (CDT) Temp. Heat Index Dew Point Humidity Pressure Visibility Wind Dir Wind Speed Gust Speed Precip Events Conditions
12:54 AM 75.0 °F - 63.0 °F 66% 29.91 in 10.0 mi SSE 13.8 mph - N/A   Clear
1:54 AM 75.0 °F - 63.0 °F 66% 29.90 in 10.0 mi South 15.0 mph - N/A   Partly Cloudy
2:54 AM 75.9 °F - 64.0 °F 67% 29.86 in 10.0 mi South 18.4 mph 25.3 mph N/A   Mostly Cloudy
3:09 AM 75.2 °F - 64.4 °F 69% 29.88 in 10.0 mi South 17.3 mph 26.5 mph N/A Thunderstorm Overcast
3:25 AM 73.4 °F - 66.2 °F 78% 29.88 in 7.0 mi South 16.1 mph - 0.03 in Rain , Thunderstorm Light Thunderstorms and Rain
3:54 AM 73.9 °F - 66.0 °F 76% 29.85 in 10.0 mi South 16.1 mph - 0.03 in   Mostly Cloudy
4:54 AM 73.9 °F - 66.0 °F 76% 29.85 in 10.0 mi South 19.6 mph - N/A   Mostly Cloudy
5:36 AM 73.4 °F - 66.2 °F 78% 29.95 in 10.0 mi North 19.6 mph 32.2 mph N/A Thunderstorm Thunderstorm
5:43 AM 69.8 °F - 60.8 °F 73% 29.97 in 2.5 mi North 28.8 mph 39.1 mph N/A Thunderstorm Unknown
5:49 AM 64.4 °F - 62.6 °F 94% 30.06 in 1.0 mi NNW 19.6 mph 38.0 mph 0.06 in Rain , Thunderstorm Heavy Thunderstorms and Rain
5:51 AM 64.4 °F - 62.6 °F 94% 30.06 in 1.0 mi NNW 17.3 mph 38.0 mph 0.18 in Rain , Thunderstorm Heavy Thunderstorms and Rain
5:54 AM 64.0 °F - 62.1 °F 93% 30.01 in 0.5 mi North 12.7 mph 31.1 mph 0.42 in Fog , Rain , Hail , Thunderstorm Heavy Thunderstorms with Hail
5:57 AM 62.6 °F - 60.8 °F 94% 30.02 in 0.5 mi North 11.5 mph 27.6 mph 0.28 in Fog , Rain , Thunderstorm Heavy Thunderstorms and Rain
6:05 AM 62.6 °F - 60.8 °F 94% 29.99 in 1.0 mi North 11.5 mph - 0.61 in Rain , Thunderstorm Heavy Thunderstorms and Rain
6:11 AM 62.6 °F - 60.8 °F 94% 29.95 in 2.0 mi North 11.5 mph - 0.68 in Rain , Thunderstorm Heavy Thunderstorms and Rain
6:22 AM 62.6 °F - 60.8 °F 94% 29.95 in 6.0 mi North 8.1 mph - 0.74 in Rain , Thunderstorm Thunderstorms and Rain
6:30 AM 62.6 °F - 62.6 °F 100% 29.94 in 8.0 mi NE 5.8 mph - 0.75 in Rain , Thunderstorm Thunderstorms and Rain
6:54 AM 63.0 °F - 62.1 °F 97% 29.90 in 9.0 mi SSW 4.6 mph - 0.78 in Rain , Thunderstorm Thunderstorms and Rain
7:16 AM 64.4 °F - 60.8 °F 88% 29.92 in 10.0 mi SE 10.4 mph - 0.01 in Thunderstorm Thunderstorm
7:46 AM 62.6 °F - 62.6 °F 100% 29.90 in 10.0 mi SSE 18.4 mph - 0.02 in Rain Light Rain
7:54 AM 63.0 °F - 61.0 °F 93% 29.86 in 10.0 mi SSE 23.0 mph 28.8 mph N/A Rain , Thunderstorm Light Thunderstorms and Rain
8:54 AM 64.9 °F - 61.0 °F 87% 29.86 in 10.0 mi East 8.1 mph - N/A Thunderstorm Thunderstorm
9:43 AM 64.4 °F - 62.6 °F 94% 29.95 in 10.0 mi SW 15.0 mph - N/A   Clear
9:54 AM 66.0 °F - 62.1 °F 87% 29.95 in 10.0 mi SW 15.0 mph - N/A   Clear
10:54 AM 66.0 °F - 62.1 °F 87% 29.93 in 10.0 mi SSW 10.4 mph - N/A   Clear
11:54 AM 69.1 °F - 63.0 °F 81% 29.96 in 10.0 mi South 13.8 mph - N/A   Clear
12:54 PM 72.0 °F - 64.0 °F 76% 29.96 in 10.0 mi South 9.2 mph - N/A   Clear
1:54 PM 75.9 °F - 66.0 °F 71% 29.95 in 10.0 mi South 11.5 mph - N/A   Clear
2:54 PM 79.0 °F - 68.0 °F 69% 29.92 in 10.0 mi South 10.4 mph - N/A   Clear
3:54 PM 81.0 °F 84.4 °F 70.0 °F 69% 29.91 in 10.0 mi SSW 12.7 mph - N/A   Overcast
4:54 PM 82.0 °F 85.9 °F 70.0 °F 67% 29.90 in 10.0 mi South 8.1 mph - N/A   Partly Cloudy
5:54 PM 82.0 °F 85.9 °F 70.0 °F 67% 29.92 in 10.0 mi South 10.4 mph - N/A   Clear
6:54 PM 82.0 °F 86.3 °F 71.1 °F 69% 29.95 in 10.0 mi South 8.1 mph - N/A   Scattered Clouds
7:54 PM 75.9 °F - 69.1 °F 79% 30.00 in 10.0 mi ENE 9.2 mph - N/A   Overcast
8:10 PM 75.2 °F - 68.0 °F 78% 30.02 in 10.0 mi ENE 10.4 mph - N/A   Overcast
8:54 PM 73.0 °F - 66.9 °F 81% 29.98 in 10.0 mi East 9.2 mph - N/A   Clear
9:54 PM 73.0 °F - 66.9 °F 81% 30.01 in 10.0 mi NNE 15.0 mph - N/A   Clear
10:12 PM 73.4 °F - 66.2 °F 78% 30.04 in 10.0 mi NNE 20.7 mph 25.3 mph N/A   Mostly Cloudy
10:54 PM 71.1 °F - 64.9 °F 81% 30.00 in 10.0 mi NE 17.3 mph - N/A   Overcast
11:15 PM 71.6 °F - 64.4 °F 78% 30.01 in 10.0 mi ENE 13.8 mph - N/A   Mostly Cloudy
11:22 PM 71.6 °F - 64.4 °F 78% 30.01 in 10.0 mi ENE 12.7 mph - N/A   Mostly Cloudy
11:54 PM 70.0 °F - 64.0 °F 81% 29.96 in 10.0 mi East 13.8 mph - N/A   Scattered Clouds